TimeEST,TemperatureF,Dew PointF,Humidity,Sea Level PressureIn,VisibilityMPH,Wind Direction,Wind SpeedMPH,Gust SpeedMPH,PrecipitationIn,Events,Conditions,WindDirDegrees,DateUTC
12:56 AM,34.0,24.1,67,30.29,10.0,NW,4.6,-,N/A,,Clear,320,2013-11-09 05:56:00
1:56 AM,34.0,24.1,67,30.30,10.0,NW,3.5,-,N/A,,Clear,320,2013-11-09 06:56:00
2:56 AM,32.0,24.1,73,30.30,10.0,Calm,Calm,-,N/A,,Clear,0,2013-11-09 07:56:00
3:56 AM,32.0,24.1,73,30.31,10.0,Calm,Calm,-,N/A,,Clear,0,2013-11-09 08:56:00
4:56 AM,30.0,26.1,85,30.32,10.0,Calm,Calm,-,N/A,,Scattered Clouds,0,2013-11-09 09:56:00
5:56 AM,30.9,25.0,79,30.32,10.0,Calm,Calm,-,N/A,,Mostly Cloudy,0,2013-11-09 10:56:00
6:56 AM,32.0,27.0,82,30.32,10.0,SE,3.5,-,N/A,,Mostly Cloudy,130,2013-11-09 11:56:00
7:56 AM,35.1,28.0,76,30.33,10.0,Calm,Calm,-,N/A,,Mostly Cloudy,0,2013-11-09 12:56:00
8:56 AM,37.9,27.0,65,30.32,10.0,SE,4.6,-,N/A,,Overcast,130,2013-11-09 13:56:00
9:56 AM,43.0,28.0,56,30.30,10.0,Calm,Calm,-,N/A,,Mostly Cloudy,0,2013-11-09 14:56:00
10:56 AM,46.0,27.0,47,30.27,10.0,Variable,3.5,-,N/A,,Mostly Cloudy,0,2013-11-09 15:56:00
11:56 AM,50.0,28.0,43,30.23,10.0,SSW,4.6,-,N/A,,Mostly Cloudy,210,2013-11-09 16:56:00
12:56 PM,50.0,28.0,43,30.18,10.0,SW,9.2,-,N/A,,Scattered Clouds,220,2013-11-09 17:56:00
1:56 PM,52.0,28.0,40,30.14,10.0,SSW,8.1,-,N/A,,Scattered Clouds,200,2013-11-09 18:56:00
2:56 PM,51.1,26.1,38,30.11,10.0,South,15.0,21.9,N/A,,Mostly Cloudy,190,2013-11-09 19:56:00
3:56 PM,51.1,26.1,38,30.11,10.0,SSW,5.8,-,N/A,,Mostly Cloudy,210,2013-11-09 20:56:00
4:56 PM,50.0,27.0,41,30.09,10.0,South,5.8,-,N/A,,Scattered Clouds,180,2013-11-09 21:56:00
5:56 PM,48.0,28.0,46,30.07,10.0,SSE,9.2,-,N/A,,Scattered Clouds,160,2013-11-09 22:56:00
6:56 PM,43.0,27.0,53,30.07,10.0,SE,4.6,-,N/A,,Clear,130,2013-11-09 23:56:00
7:56 PM,42.1,27.0,55,30.06,10.0,East,4.6,-,N/A,,Clear,90,2013-11-10 00:56:00
8:56 PM,37.9,28.9,70,30.04,10.0,Calm,Calm,-,N/A,,Clear,0,2013-11-10 01:56:00
9:56 PM,39.0,30.0,70,30.03,10.0,Calm,Calm,-,N/A,,Mostly Cloudy,0,2013-11-10 02:56:00
10:56 PM,41.0,28.0,60,30.01,10.0,Variable,3.5,-,N/A,,Mostly Cloudy,0,2013-11-10 03:56:00
11:56 PM,44.1,28.9,55,29.99,10.0,WNW,4.6,-,N/A,,Partly Cloudy,290,2013-11-10 04:56:00